Regional Weather Roundup
Issued by NWS

Home | Current Version | Previous Version | Text Only | Print | Product List | Glossary Off
Versions: 1 2 3 4 5 6 7 8 9 10 11 12 13 14 15 16 17 18 19 20 21 22 23 24 25 26 27 28 29 30 31 32 33 34 35 36 37 38 39 40 41 42 43 44 45 46 47 48 49 50

000
ASUS43 KFSD 250210
RWRSD

WEATHER ROUNDUP FOR SOUTH DAKOTA
NATIONAL WEATHER SERVICE SIOUX FALLS SD
900 PM CDT SUN JUL 24 2016

NOTE: "FAIR" INDICATES FEW OR NO CLOUDS BELOW 12,000 FEET WITH NO
SIGNIFICANT WEATHER AND/OR OBSTRUCTIONS TO VISIBILITY.


SDZ001>005-009-010-012>017-250300-
NORTHWEST AND NORTH CENTRAL SOUTH DAKOTA

CITY           SKY/WX    TMP DP  RH WIND       PRES   REMARKS
BUFFALO          N/A     83  45  26 S14       29.98S
FAITH            N/A     78  44  29 SE8       30.06S
MOBRIDGE       CLEAR     81  55  40 E6        30.02R
$$

SDZ012>016-024>037-041>051-057-063-072>074-250300-
SOUTHWEST AND SOUTH CENTRAL SOUTH DAKOTA

CITY           SKY/WX    TMP DP  RH WIND       PRES   REMARKS
RAPID CTY ARPT CLEAR     77  51  40 SE9       30.08R
PIERRE         CLEAR     79  50  36 CALM      30.04R
CUSTER         CLEAR     72  44  36 E9        30.24R
ELLSWORTH AFB  CLEAR     80  50  35 SE9       30.07S
PHILIP         CLEAR     78  56  46 E9        30.05S
PINE RIDGE     CLEAR     79  50  36 E9        30.11R
WINNER         FAIR      79  51  37 E7        30.08R
$$

SDZ004>011-016>023-039-040-250300-
NORTHEAST SOUTH DAKOTA

CITY           SKY/WX    TMP DP  RH WIND       PRES   REMARKS
ABERDEEN       CLEAR     77  58  51 NW6       30.02R
WATERTOWN      CLEAR     74  59  59 NW6       30.04R
BROOKINGS      CLEAR     73  65  75 W6        30.04R
SISSETON         N/A     72  59  63 W6        29.99R
$$

SDZ017-020-022-023-036>040-048>070-250300-
SOUTHEAST SOUTH DAKOTA

CITY           SKY/WX    TMP DP  RH WIND       PRES   REMARKS
SIOUX FALLS    PTCLDY    73  64  73 W3        30.05R
HURON          CLEAR     75  63  66 CALM      30.03R
CHAMBERLAIN    CLEAR     74  60  61 S5        30.06R
MITCHELL       CLEAR     75  60  59 CALM      30.05R
YANKTON        CLEAR     73  61  64 CALM      30.05R
$$

ABBREVIATIONS USED IN REMARKS
   TC - TEMPERATURE IN CELSIUS
  WCI - WIND CHILL INDEX
   HX - HEAT INDEX
  VSB - VISIBILITY





USA.gov is the U.S. government's official web portal to all federal, state and local government web resources and services.